Regional Weather Roundup
Issued by NWS

Home | Current Version | Previous Version | Text Only | Print | Product List | Glossary Off
Versions: 1 2 3 4 5 6 7 8 9 10 11 12 13 14 15 16 17 18 19 20 21 22 23 24 25 26 27 28 29 30 31 32 33 34 35 36 37 38 39 40 41 42 43 44 45 46 47 48 49 50

767
ASUS43 KLOT 111003
RWRIL

ILLINOIS REGIONAL WEATHER ROUNDUP
NATIONAL WEATHER SERVICE CHICAGO/ROMEOVILLE IL
400 AM CST MON DEC 11 2017

NOTE: "FAIR" INDICATES FEW OR NO CLOUDS BELOW 12,000 FEET WITH NO
SIGNIFICANT WEATHER AND/OR OBSTRUCTIONS TO VISIBILITY.

* THESE STATIONS ARE NOT UNDER NWS QUALITY CONTROL. THEY ALSO MAY NOT
  REPORT WEATHER SUCH AS PRECIPITATION OR FOG.

ILZ001-002-007-009-015-016-024-111100-
NORTHWEST ILLINOIS

CITY           SKY/WX    TMP DP  RH WIND       PRES   REMARKS
MOLINE         CLOUDY    30  24  78 VRB3      29.97F
STERLING*      CLOUDY    26  22  84 CALM      29.99
SAVANNA*       CLOUDY    26  23  86 S3        29.99F
$$

ILZ003-004-008-010-011-017-018-111100-
NORTH CENTRAL ILLINOIS

CITY           SKY/WX    TMP DP  RH WIND       PRES   REMARKS
ROCKFORD       CLOUDY    22  19  89 VRB3      30.02S
FREEPORT*      CLOUDY    25  21  85 S5        30.01S WCI  19
ROCHELLE*      CLOUDY    24  20  85 S6        30.01S WCI  17
DE KALB*       CLOUDY    23  20  90 S5        30.01R WCI  17
PERU*          CLOUDY    26  22  85 SW7       30.02F WCI  18
$$

ILZ005-006-012>014-019>023-111100-
NORTHEAST ILLINOIS

CITY           SKY/WX    TMP DP  RH WIND       PRES   REMARKS
CHICAGO-OHARE  MOCLDY    26  19  74 S3        29.99F
CHICAGO-MIDWAY MOCLDY    27  20  75 S7        30.01F WCI  19
AURORA         CLOUDY    23  20  88 SW3       30.01F
LANSING*       CLOUDY    23  21  92 S3        30.02S
WAUKEGAN       MOCLDY    22  19  89 CALM      29.99S
DUPAGE AIRPORT CLOUDY    23  21  92 SE5       29.98F WCI  17
WHEELING       CLOUDY    25  19  78 CALM      30.01F
ROMEOVILLE*    CLOUDY    24  22  92 S5        30.01F WCI  18
NORTHERLY ISL    N/A     28  19  69 S6          N/A  WCI  22
$$

LMZ740>746-111100-
SOUTHERN LAKE MICHIGAN

STATION/POSITION SKY/WX   TEMP    WIND        PRES    VSBY  WAVE
                          AIR SEA DIR/SP/G                  HT/PER
                          (F)     (DEG/KT/KT) (MB)    (MI)  (FT/S)
HARRISON CRIB              30     200/  9/ 10   N/A
BURNHAM HARBOR             27     180/  7       N/A
CALUMET HARBOR             27     180/  4/  6 1015.9F
BURNS HARBOR               27     190/  4/  7 1016.6F
MICHIGAN CITY              27     170/  7/  8   N/A
$$

ILZ025>027-034>036-040-047-049-050-058-095>099-111100-
WEST-CENTRAL ILLINOIS

CITY           SKY/WX    TMP DP  RH WIND       PRES   REMARKS
QUINCY         CLOUDY    29  24  82 S8        30.00F WCI  21
GALESBURG*     PTCLDY    29  26  87 SE3       29.99F
MACOMB*        CLEAR     26  22  87 S6        30.02F WCI  19
PITTSFIELD*    CLOUDY    33  26  75 S8        30.02F WCI  27
$$

ILZ028>032-037-038-041>044-048-051>054-059>061-111100-
CENTRAL ILLINOIS

CITY           SKY/WX    TMP DP  RH WIND       PRES   REMARKS
BLOOMINGTON    CLOUDY    26  23  88 S6        30.03F WCI  19
DECATUR        CLOUDY    27  22  81 SE3       30.05F
PEORIA         CLOUDY    28  24  85 S5        30.02F WCI  23
LACON*         PTCLDY    27  23  86 SE5       30.01F WCI  21
LINCOLN*       CLOUDY    28  26  89 CALM      30.04F
SPRINGFIELD    CLOUDY    30  25  81 S5        30.04F WCI  25
TAYLORVILLE    CLOUDY    25  22  86 S5        30.05F WCI  20
$$

ILZ033-039-045-046-055>057-062-063-111100-
EAST-CENTRAL ILLINOIS

CITY           SKY/WX    TMP DP  RH WIND       PRES   REMARKS
CHAMPAIGN      CLOUDY    26  22  84 S6        30.05F WCI  19
DANVILLE*      CLOUDY    22  20  90 CALM      30.03F
MATTOON        CLOUDY    28  24  85 S6        30.06F WCI  22
$$

ILZ079-100>102-111100-
SOUTHWEST ILLINOIS

CITY           SKY/WX    TMP DP  RH WIND       PRES   REMARKS
ALTON          CLEAR     24  22  93 SE5       30.07S WCI  18
BELLEVILLE     CLEAR     25  20  82 CALM      30.08S
CAHOKIA*       CLEAR     27  21  78 S3        30.08F
$$

ILZ064>066-069>071-074>076-080>082-084>086-088>090-092>094-111100-
SOUTH-CENTRAL ILLINOIS

CITY           SKY/WX    TMP DP  RH WIND       PRES   REMARKS
CARBONDALE     CLEAR     25  24  96 SE3       30.11F
CAIRO*         CLEAR     27  26  98 CALM      30.13F
EFFINGHAM*     CLEAR     24  24  98 CALM      30.10F
MARION         CLEAR     28  28  98 CALM      30.12F
MT. VERNON     CLEAR     21  20  96 CALM      30.11F
CENTRALIA*     CLEAR     29  26  89 S8        30.08F WCI  21
SALEM*         CLEAR     31  25  78 SE5       30.08F WCI  26
METROPOLIS*    CLEAR     26  25  94 CALM      30.14F
$$

ILZ067-068-072-073-078-083-087-091-111100-
SOUTHEAST ILLINOIS

CITY           SKY/WX    TMP DP  RH WIND       PRES   REMARKS
LAWRENCEVILLE  CLEAR     25  22  88 S3        30.10F
FLORA*         CLEAR     25  23  90 S5        30.10F WCI  20
HARRISBURG*    CLEAR     27  26  97 CALM      30.13F
ROBINSON*      CLEAR     20  19  95 CALM      30.11F
CARMI*         CLEAR     26  25  96 CALM      30.11F
$$

ABBREVIATIONS USED IN REMARKS
   TC - TEMPERATURE IN CELSIUS
  WCI - WIND CHILL INDEX
   HX - HEAT INDEX
  VSB - VISIBILITY
$$





USA.gov is the U.S. government's official web portal to all federal, state and local government web resources and services.